• Processing (Info)

  • MPEC 2017-U114: 2013 UW16

    The following Minor Planet Electronic Circular may be linked-to from your own Web pages, but must not otherwise be redistributed electronically.

    A form allowing access to any MPEC is at the bottom of this page.


    Read MPEC 2017-U113 Read MPEC 2017-U115


    M.P.E.C. 2017-U114                               Issued 2017 Oct. 20, 00:20 UT
    
         The Minor Planet Electronic Circulars contain information on unusual
             minor planets and routine data on comets.  They are published
        on behalf of Division F of the International Astronomical Union by the
              Minor Planet Center, Smithsonian Astrophysical Observatory,
                              Cambridge, MA 02138, U.S.A.
    
                 Prepared using the Tamkin Foundation Computer Network
    
                                  MPC@CFA.HARVARD.EDU
                URL https://www.minorplanetcenter.net/    ISSN 1523-6714
    
                                       2013 UW16
    
    Observations:
         K13U16W @C2013 08 02.50467 00 56 34.318+04 05 43.96         23.8 rqEU114568
         K13U16W @C2013 08 02.54741 00 56 34.253+04 05 43.47         23.8 rqEU114568
         K13U16W @C2013 08 11.50367 00 56 19.255+04 03 50.76         23.9 rqEU114568
         K13U16W @C2013 08 30.42008 00 55 29.956+03 58 09.06         23.7 rqEU114568
         K13U16W @C2013 08 31.42413 00 55 26.746+03 57 47.52         23.7 rqEU114568
         K13U16W @C2013 08 31.46730 00 55 26.603+03 57 46.55         23.9 rqEU114568
         K13U16W @C2013 09 04.40430 00 55 13.552+03 56 19.25         23.1 rqEU114568
         K13U16W @C2013 09 04.44707 00 55 13.386+03 56 18.43         23.6 rqEU114568
         K13U16W @C2013 10 05.37122 00 53 11.725+03 43 17.14         23.8 rqEU114568
         K13U16W @C2013 10 05.37632 00 53 11.690+03 43 17.13         23.9 rqEU114568
         K13U16W @C2013 10 06.37972 00 53 07.449+03 42 50.55         23.5 rqEU114568
         K13U16W @C2013 10 06.44410 00 53 07.184+03 42 48.90         23.6 rqEU114568
         K13U16W @C2013 10 09.50414 00 52 54.218+03 41 28.26         23.9 rqEU114568
         K13U16W @C2013 10 09.50879 00 52 54.205+03 41 28.39         23.6 rqEU114568
         K13U16W @C2013 10 29.29940 00 51 33.154+03 33 14.25         24.0 rqEU114568
         K13U16W*@C2013 10 31.22708 00 51 25.738+03 32 30.36         24.1 rqEU114568
         K13U16W @C2013 10 31.27019 00 51 25.589+03 32 29.24         23.6 rqEU114568
         K13U16W @C2013 10 31.31297 00 51 25.422+03 32 28.35         23.6 rqEU114568
         K13U16W @C2013 11 01.25343 00 51 21.875+03 32 07.36         23.8 rqEU114568
         K13U16W @C2013 11 01.37273 00 51 21.414+03 32 04.61         23.9 rqEU114568
         K13U16W @C2013 11 02.22554 00 51 18.266+03 31 45.74         23.9 rqEU114568
         K13U16W @C2013 11 02.24797 00 51 18.137+03 31 45.13         23.9 rqEU114568
         K13U16W @C2013 11 02.26953 00 51 18.070+03 31 44.82         24.3 rqEU114568
         K13U16W @C2013 11 02.29201 00 51 17.968+03 31 44.25         23.9 rqEU114568
         K13U16W @C2013 11 05.35173 00 51 06.758+03 30 38.06         23.5 rqEU114568
         K13U16W @C2013 11 05.37780 00 51 06.669+03 30 37.67         24.0 rqEU114568
         K13U16W @C2013 11 06.39952 00 51 03.023+03 30 16.22         23.9 rqEU114568
         K13U16W @C2013 11 06.40464 00 51 02.993+03 30 16.33         23.8 rqEU114568
         K13U16W @C2013 11 07.43574 00 50 59.359+03 29 55.03         23.5 rqEU114568
         K13U16W @C2013 11 29.21607 00 49 56.184+03 24 01.81         23.7 rqEU114568
         K13U16W @C2013 12 04.24324 00 49 45.994+03 23 10.07         23.7 rqEU114568
         K13U16W @C2013 12 04.29069 00 49 45.902+03 23 09.59         24.0 rqEU114568
         K13U16W @C2013 12 05.31529 00 49 44.056+03 23 00.41         23.6 rqEU114568
         K13U16W @C2014 06 27.57448 01 00 50.187+04 34 57.28         23.9 rqEU114568
         K13U16W @C2014 06 28.57952 01 00 51.773+04 35 04.81         23.9 rqEU114568
         K13U16W @C2014 07 23.55193 01 01 05.310+04 35 30.19         23.8 rqEU114568
         K13U16W @C2014 07 27.53111 01 01 02.856+04 35 05.43         23.4 rqEU114568
         K13U16W @C2014 08 22.61348 01 00 17.389+04 29 29.60         23.7 rqEU114568
         K13U16W @C2014 08 23.47191 01 00 15.108+04 29 14.09         25.5 uqEU114568
         K13U16W @C2014 08 28.45040 01 00 00.937+04 27 37.75         23.7 rqEU114568
         K13U16W @C2014 10 23.27749 00 56 22.619+04 04 35.37         23.7 rqEU114568
         K13U16W @C2014 10 23.33112 00 56 22.393+04 04 33.88         23.7 rqEU114568
         K13U16W @C2014 10 23.38450 00 56 22.158+04 04 32.87         23.7 rqEU114568
         K13U16W @C2014 10 25.25487 00 56 14.589+04 03 47.07         23.7 rqEU114568
         K13U16W @C2014 10 25.35645 00 56 14.156+04 03 44.55         23.8 rqEU114568
         K13U16W @C2014 10 25.45680 00 56 13.738+04 03 42.14         23.3 rqEU114568
         K13U16W @C2014 10 27.24490 00 56 06.590+04 02 59.20         23.6 rqEU114568
         K13U16W @C2014 10 27.30309 00 56 06.346+04 02 57.80         23.7 rqEU114568
         K13U16W @C2014 10 27.36937 00 56 06.077+04 02 56.22         23.6 rqEU114568
         K13U16W @C2014 10 29.25791 00 55 58.613+04 02 11.60         23.7 rqEU114568
         K13U16W @C2014 11 19.20738 00 54 45.397+03 55 07.49         23.1 rqEU114568
         K13U16W @C2014 11 25.22391 00 54 28.660+03 53 35.45         23.7 rqEU114568
         K13U16W @C2014 12 17.32324 00 53 49.178+03 50 24.11         23.7 rqEU114568
         K13U16W @C2015 01 17.26407 00 54 01.211+03 53 06.71         23.9 rqEU114568
         K13U16W @C2017 01 31.21678 01 03 09.260+04 53 07.77         24.0 wqEU114568
         K13U16W @C2017 01 31.22433 01 03 09.275+04 53 07.94         23.7 wqEU114568
         K13U16W @C2017 07 24.59111 01 14 13.622+06 00 09.23         23.8 wqEU114568
    
    Observer details:
    568 Mauna Kea.  Observers M. T. Bannister, J. J. Kavelaars, B. J. Gladman,
        J.-M. Petit, T. Burdullis.  Measurers S. D. J. Gwyn, Y.-T. Chen,
        M. Alexandersen, M. Schwamb.  3.6-m Canada-France-Hawaii Telescope + CCD.
    
    Orbital elements:
    2013 UW16
    Epoch 2017 Sept. 4.0 TT = JDT 2458000.5                 MPC
    M 261.54829              (2000.0)            P               Q
    n   0.00335823     Peri.   46.82757     -0.57139215     -0.81998551
    a  44.1633495      Node    78.04934     +0.74261517     -0.53407841
    e   0.0733440      Incl.    1.97323     +0.34933326     -0.20587379
    P 293              H    7.3           G   0.15           U   3
    Residuals in seconds of arc
    130802 568  0.0   0.0     131101 568  0.0   0.0     140823 568  0.0   0.2+
    130802 568  0.1-  0.0     131102 568  0.5+  0.0     140828 568  0.1-  0.1+
    130811 568  0.1-  0.0     131102 568  0.1-  0.1-    141023 568  0.1+  0.0
    130830 568  0.0   0.0     131102 568  0.1+  0.1+    141023 568  0.0   0.2-
    130831 568  0.0   0.0     131102 568  0.1-  0.0     141023 568  0.1-  0.1+
    130831 568  0.0   0.0     131105 568  0.1-  0.3-    141025 568  0.2+  0.0
    130904 568  0.2+  0.2-    131105 568  0.0   0.1-    141025 568  0.0   0.0
    130904 568  0.1-  0.1-    131106 568  0.1+  0.2-    141025 568  0.1-  0.0
    131005 568  0.1+  0.1-    131106 568  0.1-  0.0     141027 568  0.1+  0.0
    131005 568  0.1-  0.0     131107 568  0.0   0.1-    141027 568  0.1-  0.0
    131006 568  0.0   0.0     131129 568  0.1-  0.1+    141027 568  0.1-  0.0
    131006 568  0.1+  0.0     131204 568  0.1+  0.2+    141029 568  0.1-  0.1-
    131009 568  0.1-  0.1-    131204 568  0.0   0.1+    141119 568  0.0   0.0
    131009 568  0.0   0.2+    131205 568  0.0   0.1-    141125 568  0.0   0.1-
    131029 568  0.2+  0.0     140627 568  0.0   0.0     141217 568  0.1-  0.3+
    131031 568  0.2-  0.1+    140628 568  0.0   0.0     150117 568  0.0   0.0
    131031 568  0.0   0.1-    140723 568  0.0   0.3+    170131 568  0.0   0.1-
    131031 568  0.0   0.0     140727 568  0.0   0.0     170131 568  0.0   0.0
    131101 568  0.1+  0.1+    140822 568  0.0   0.0     170724 568  0.0   0.1-
    
    Ephemeris:
    2013 UW16                a,e,i = 44.16, 0.07, 2                  q = 40.924
    Date    TT    R. A. (2000) Decl.     Delta      r     Elong.  Phase     V
    2017 09 20    01 12 00.7 +05 45 05  43.9309 44.8645   158.1     0.5    23.9
    ...
    2017 10 05    01 10 59.2 +05 38 44  43.8691 44.8618   173.0     0.2    23.8
    ...
    2017 10 13    01 10 25.0 +05 35 16  43.8632 44.8603   177.9     0.0    23.8
    ...
    2017 10 19    01 09 59.3 +05 32 41  43.8715 44.8592   172.5     0.2    23.8
    2017 10 20    01 09 55.1 +05 32 16  43.8739 44.8590   171.5     0.2    23.8
    2017 10 21    01 09 50.8 +05 31 51  43.8766 44.8589   170.5     0.2    23.8
    ...
    2017 10 27    01 09 25.7 +05 29 22  43.8993 44.8578   164.5     0.3    23.8
    ...
    2017 11 04    01 08 53.7 +05 26 15  43.9459 44.8563   156.4     0.5    23.9
    ...
    2017 11 19    01 08 00.2 +05 21 10  44.0802 44.8536   141.1     0.8    23.9
    
    A. U. Tomatic                (C) Copyright 2017 MPC           M.P.E.C. 2017-U114
    

    Read MPEC 2017-U113 Read MPEC 2017-U115


    MPEC number:

    Enter an MPEC number in one of the following forms:

    • 1997-B01 (the full form)
    • J97B01 (the packed version of the full form)
    • B01 (the abbreviated form)